Regional Weather Roundup
Issued by NWS

Home | Current Version | Previous Version | Text Only | Print | Product List | Glossary On
Versions: 1 2 3 4 5 6 7 8 9 10 11 12 13 14 15 16 17 18 19 20 21 22 23 24 25 26 27 28 29 30 31 32 33 34 35 36 37 38 39 40 41 42 43 44 45 46 47 48 49 50
000
ASUS45 KBOU 070907
RWRCO

WEATHER ROUNDUP FOR COLORADO
NATIONAL WEATHER SERVICE DENVER/BOULDER CO
300 AM MDT THU MAY 07 2015

NOTE: "FAIR" INDICATES FEW OR NO CLOUDS BELOW 12000 FEET WITH NO
SIGNIFICANT WEATHER AND/OR OBSTRUCTIONS TO VISIBILITY.

COZ001>005-013-030-031-071000-
...NORTHWEST COLORADO...

CITY           SKY/WX    TMP DP  RH WIND       PRES   REMARKS
CRAIG          PTCLDY    37  34  89 CALM      29.88S
HAYDEN         CLOUDY    39  34  81 S3        29.88S
MEEKER         CLOUDY    41  38  89 NE6       29.90R
MOUNT WERNER   NOT AVBL
STEAMBOAT SPGS CLEAR     38  37  96 E3        29.90R
WALDEN         MOCLDY    34  32  93 E6        29.90S WCI  29
$$

COZ006>008-011-071000-
...WEST CENTRAL VALLEYS...

CITY           SKY/WX    TMP DP  RH WIND       PRES   REMARKS
GRAND JUNCTION CLOUDY    47  45  93 N8        29.86R
MONTROSE       MOCLDY    47  43  86 SE8       29.91S
EAGLE          CLOUDY    37  36  93 E3        29.94S
RIFLE          MOCLDY    41  39  93 E3        29.90R
DELTA          PTCLDY    50  45  81 NE5       29.89R
NUCLA          MOCLDY    45  37  76 SE5       29.92S
$$

COZ017>023-064>068-071000-
...SOUTHWEST COLORADO...

CITY           SKY/WX    TMP DP  RH WIND       PRES   REMARKS
DURANGO        PTCLDY    41  39  93 CALM      29.95S
CORTEZ         CLEAR     44  39  82 E5        29.90S
PAGOSA SPRINGS PTCLDY    37  37  97 CALM      30.00S
TELLURIDE      MOCLDY    39  34  82 SE5       30.02F
WOLF CREEK PAS NOT AVBL
$$

COZ009-010-012-014-032>034-037-058>063-071000-
...CENTRAL COLORADO...

CITY           SKY/WX    TMP DP  RH WIND       PRES   REMARKS
ASPEN          MOCLDY    38  33  82 S3        29.92S
BUENA VISTA    NOT AVBL
COPPER MTN     PTCLDY    34  25  69 SW9       30.06S WCI  26
BERTHOUD PASS  FAIR      23  16  74 NW25      30.04S WCI   7
COTTONWOOD PAS MOCLDY    39  32  75 S6        30.00S
GUNNISON       MOCLDY    37  34  87 S3        29.99S
KREMMLING      PTCLDY    36  32  87 CALM      29.93S
LEADVILLE      PTCLDY    30  28  92 VRB3      29.98F
MONARCH PASS   CLOUDY    30  28  93 MISG      30.18S
SALIDA         MOCLDY    46  37  69 CALM      30.00S
SUNLIGHT       CLOUDY    32  32 100 CALM      30.06R FOG
WILKERSON PASS MOCLDY    30  28  93 SW9       30.05F WCI  22
$$

COZ069>075-071000-
...SAN LUIS VALLEY/SANGRE DE CRISTO MOUNTAINS...

CITY           SKY/WX    TMP DP  RH WIND       PRES   REMARKS
ALAMOSA        MOCLDY    40  33  76 SE3       29.96F
LA VETA PASS   MOCLDY   N/A N/A N/A MISG      30.01S
SAGUACHE       CLOUDY    39  37  93 CALM      29.98S
$$

COZ035-036-038>040-071000-
...NORTHERN COLORADO FRONT RANGE...

CITY           SKY/WX    TMP DP  RH WIND       PRES   REMARKS
DENVER INTL AP CLOUDY    45  42  89 NE9       29.86S
DMNS CITY PARK   N/A     47  43  88 SE8G16    29.86S
AURORA         CLOUDY    46  46 100 NE8       29.87S
FRONT RANGE AP CLOUDY    46  45  93 NE6       29.87S
ERIE MUNI ARPT CLOUDY    47  44  88 NE8       29.85F
BOULDER MUN AP CLOUDY    46  45  93 NE5       29.86S
CENTENNIAL     CLOUDY    47  46  97 NE8       29.86S FOG
BROOMFIELD     CLOUDY    45  45 100 NE9       29.87S
FORT COLLINS   MOCLDY    45  39  81 CALM      29.87S
LONGMONT       CLOUDY    50  44  80 NE5       29.87S
$$

COZ041-046-047-076>085-087-088-071000-
...PIKES PEAK/PALMER DIVIDE AND SOUTHERN FOOTHILLS...

CITY           SKY/WX    TMP DP  RH WIND       PRES   REMARKS
COLO. SPRINGS  MOCLDY    46  43  89 S5        29.86R
A. F. ACADEMY  PTCLDY    44  43  99 NW7       29.86S
ELLICOTT       MOCLDY   N/A N/A N/A N7        29.85R
FALCON         MOCLDY    44  43  97 N6        29.88S
FORT CARSON    MOCLDY    46  45  97 VRB2      29.85R
LIMON          CLOUDY    48  47  96 N10       29.85R
MONUMENT HILL  NOT AVBL
TRINIDAD       MOCLDY    52  37  56 NW9       29.86R
$$

COZ042>045-048>051-090-091-071000-
...NORTHEAST COLORADO...

CITY           SKY/WX    TMP DP  RH WIND       PRES   REMARKS
GREELEY ARPT     N/A    N/A N/A N/A MISG        N/A
AKRON          CLOUDY    46  44  93 NW15      29.84R
BURLINGTON     CLOUDY    52  48  86 N12       29.81R
WRAY           MOCLDY    51  47  86 NW10G17   29.80R
STERLING       CLOUDY    48  45  87 N15       29.81R
HOLYOKE        NOT AVBL
FORT MORGAN    CLOUDY    46  42  87 CALM      29.85R
$$

COZ086-089-092>099-071000-
...SOUTHEAST COLORADO...

CITY           SKY/WX    TMP DP  RH WIND       PRES   REMARKS
PUEBLO         CLOUDY    51  48  89 E5        29.82R
LA JUNTA       MOCLDY    52  48  86 W5        29.80R
LAMAR          PTCLDY    50  49  96 E3        29.76S
SPRINGFIELD      N/A     55  46  71 S7        29.79S
$$



USA.gov is the U.S. government's official web portal to all federal, state and local government web resources and services.